Location: Peebles
(55.6412°N, 3.1714°W)
Time: 13:50:49
(UTC+01:00)

ARIANE 5 R/B - Pass Details

Date: 26 September 2021
Orbit: 622 x 654 km, 98.1° (Epoch: 03 October)

Event Time Altitude Azimuth Distance (km) Brightness Sun altitude
Exits shadow 21:32:16 31° 56° (NE) 1,139 3.7 -21.3°
Drops below altitude 10° 21:35:59 10° 360° (N) 2,052 5.6 -21.7°
Sets 21:38:24 0° 350° (N) 2,972 6.7 -22.0°
